Find Jiaotong-7

NORAD ID: 57627 Int'l Des: 2023-121 Owner: HEAD Country: CN operational
LEOCIRCULAR

实时位置

正在加载3D地球...

关于 Jiaotong-7

正在加载描述...

即将过境

Passes for default location (London). Set your location on the main map for personalized predictions.

高度历史

Loading altitude history...

两行轨道根数

1 57627U 23121B 26104.93011543 .00000387 00000-0 10942-3 0 9992
2 57627 45.0027 256.3853 0005751 293.1894 66.8357 14.61484696142419
Epoch: Apr 14, 2026 • Age: 7 hours

当前状态

高度 686.7 km
速度 7.52 km/s
星下点 -0.97°S, 22.47°W
发射日期 Aug 14, 2023
运行时间 2.6 years
类型 other

技术详情

分类 Payload
质量 40.00 kg
干质量 40.00 kg
总质量 40.00 kg
长度 0.50 m
直径 0.20 m
跨度 2.00 m
形状 Box + 2 Pan
制造商 IMICAS
平台类型 WN100
阶段状态 In Orbit
所有者/国家 HEAD/CN

Most Searched